Location: Guadanolo
(41.9167°N, 12.9333°E)
Time: 06:35:42
(UTC+00:00)

Cosmos 2297 Rocket - Pass Details

Date: 16 September 2019
Orbit: 841 x 842 km, 71.0° (Epoch: 17 October)

Event Time Altitude Azimuth Distance (km) Brightness Sun altitude
Rises 19:40:56 0° 202° (SSW) 3,383 5.3 -26.3°
Enters shadow 19:42:39 - 202° (SSW) 2,725 4.8 -26.6°
Exits shadow 19:48:38 79° 199° (SSW) 861 2.1 -27.5°
Maximum altitude 19:49:00 89° 114° (ESE) 848 2.0 -27.6°
Drops below altitude 10° 19:54:41 10° 24° (NNE) 2,468 4.7 -28.5°
Sets 19:57:08 0° 25° (NNE) 3,407 5.5 -28.8°
